owner,sensor,date,latitude,longitude,vertical_datum,direction_of_sea_water_velocity,sea_water_speed,upward_sea_water_velocity,qcFlag 
TABS,ioos:station:TABS:H:1,1997-08-01T00:00:00Z,27.8674,-96.5433,2.0,23.17665045,13.61910423,-99999.0,'11111222,11111222,99999999' 
TABS,ioos:station:TABS:H:1,1997-08-01T00:30:00Z,27.8674,-96.5433,2.0,10.52529372,13.02921717,-99999.0,'11111222,11111222,99999999' 
TABS,ioos:station:TABS:H:1,1997-08-01T01:00:00Z,27.8674,-96.5433,2.0,356.5819146,14.92655687,-99999.0,'11111222,11111222,99999999' 
TABS,ioos:station:TABS:H:1,1997-08-01T01:30:00Z,27.8674,-96.5433,2.0,354.8986653,16.75637789,-99999.0,'11111222,11111222,99999999' 
TABS,ioos:station:TABS:H:1,1997-08-01T02:00:00Z,27.8674,-96.5433,2.0,351.6143841,18.37647409,-99999.0,'11111222,11111222,99999999' 
TABS,ioos:station:TABS:H:1,1997-08-01T02:30:00Z,27.8674,-96.5433,2.0,356.429496,19.10709292,-99999.0,'11111222,11111222,99999999' 
TABS,ioos:station:TABS:H:1,1997-08-01T03:00:00Z,27.8674,-96.5433,2.0,354.9511685,20.33892082,-99999.0,'11111222,11111222,99999999' 
TABS,ioos:station:TABS:H:1,1997-08-01T03:30:00Z,27.8674,-96.5433,2.0,353.3002345,20.39931371,-99999.0,'11111222,11111222,99999999' 
TABS,ioos:station:TABS:H:1,1997-08-01T04:00:00Z,27.8674,-96.5433,2.0,355.7594543,24.20627398,-99999.0,'11111222,11111222,99999999' 
TABS,ioos:station:TABS:H:1,1997-08-01T04:30:00Z,27.8674,-96.5433,2.0,354.1641723,26.35660828,-99999.0,'11111222,11111222,99999999' 
TABS,ioos:station:TABS:H:1,1997-08-01T05:00:00Z,27.8674,-96.5433,2.0,355.6869085,27.78870634,-99999.0,'11111222,11111222,99999999' 
TABS,ioos:station:TABS:H:1,1997-08-01T05:30:00Z,27.8674,-96.5433,2.0,355.9477309,29.57394292,-99999.0,'11111222,11111222,99999999' 
TABS,ioos:station:TABS:H:1,1997-08-01T06:00:00Z,27.8674,-96.5433,2.0,0.000210459,31.89,-99999.0,'11111222,11111222,99999999' 
TABS,ioos:station:TABS:H:1,1997-08-01T06:30:00Z,27.8674,-96.5433,2.0,357.5322409,34.60209531,-99999.0,'11111222,11111222,99999999' 
TABS,ioos:station:TABS:H:1,1997-08-01T07:00:00Z,27.8674,-96.5433,2.0,357.7096058,37.27978809,-99999.0,'11111222,11111222,99999999' 
TABS,ioos:station:TABS:H:1,1997-08-01T07:30:00Z,27.8674,-96.5433,2.0,358.1994346,37.86870212,-99999.0,'11111222,11111222,99999999' 
TABS,ioos:station:TABS:H:1,1997-08-01T08:00:00Z,27.8674,-96.5433,2.0,3.211552176,37.30858614,-99999.0,'11111222,11111222,99999999' 
TABS,ioos:station:TABS:H:1,1997-08-01T08:30:00Z,27.8674,-96.5433,2.0,9.768874141,36.89494816,-99999.0,'11111222,11111222,99999999' 
TABS,ioos:station:TABS:H:1,1997-08-01T09:00:00Z,27.8674,-96.5433,2.0,13.82440231,38.67014481,-99999.0,'11111222,11111222,99999999' 
TABS,ioos:station:TABS:H:1,1997-08-01T09:30:00Z,27.8674,-96.5433,2.0,19.50905809,40.1553309,-99999.0,'11111222,11111222,99999999' 
TABS,ioos:station:TABS:H:1,1997-08-01T10:00:00Z,27.8674,-96.5433,2.0,23.96405912,41.09207466,-99999.0,'11111222,11111222,99999999' 
TABS,ioos:station:TABS:H:1,1997-08-01T10:30:00Z,27.8674,-96.5433,2.0,29.64727979,42.17063078,-99999.0,'11111222,11111222,99999999' 
TABS,ioos:station:TABS:H:1,1997-08-01T11:00:00Z,27.8674,-96.5433,2.0,30.89706455,44.1094661,-99999.0,'11111222,11111222,99999999' 
TABS,ioos:station:TABS:H:1,1997-08-01T11:30:00Z,27.8674,-96.5433,2.0,31.7165409,43.08416182,-99999.0,'11111222,11111222,99999999' 
TABS,ioos:station:TABS:H:1,1997-08-01T12:00:00Z,27.8674,-96.5433,2.0,30.76151677,43.69811209,-99999.0,'11111222,11111222,99999999' 
TABS,ioos:station:TABS:H:1,1997-08-01T12:30:00Z,27.8674,-96.5433,2.0,30.70472022,44.35856287,-99999.0,'11111222,11111222,99999999' 
TABS,ioos:station:TABS:H:1,1997-08-01T13:00:00Z,27.8674,-96.5433,2.0,33.01949518,42.64827312,-99999.0,'11111222,11111222,99999999' 
TABS,ioos:station:TABS:H:1,1997-08-01T13:30:00Z,27.8674,-96.5433,2.0,37.35536207,42.73553322,-99999.0,'11111222,11111222,99999999' 
TABS,ioos:station:TABS:H:1,1997-08-01T14:00:00Z,27.8674,-96.5433,2.0,35.53780515,38.45239394,-99999.0,'11111222,11111222,99999999' 
TABS,ioos:station:TABS:H:1,1997-08-01T14:30:00Z,27.8674,-96.5433,2.0,35.89990715,38.62753681,-99999.0,'11111222,11111222,99999999' 
TABS,ioos:station:TABS:H:1,1997-08-01T15:00:00Z,27.8674,-96.5433,2.0,39.26249176,35.78919669,-99999.0,'11111222,11111222,99999999' 
TABS,ioos:station:TABS:H:1,1997-08-01T15:30:00Z,27.8674,-96.5433,2.0,47.12383079,34.15550468,-99999.0,'11111222,11111222,99999999' 
TABS,ioos:station:TABS:H:1,1997-08-01T16:00:00Z,27.8674,-96.5433,2.0,48.23752357,33.55627214,-99999.0,'11111222,11111222,99999999' 
TABS,ioos:station:TABS:H:1,1997-08-01T16:30:00Z,27.8674,-96.5433,2.0,46.16390599,30.98473979,-99999.0,'11111222,11111222,99999999' 
TABS,ioos:station:TABS:H:1,1997-08-01T17:00:00Z,27.8674,-96.5433,2.0,47.81926415,25.73447687,-99999.0,'11111222,11111222,99999999' 
TABS,ioos:station:TABS:H:1,1997-08-01T17:30:00Z,27.8674,-96.5433,2.0,51.71648742,21.64458824,-99999.0,'11111222,11111222,99999999' 
TABS,ioos:station:TABS:H:1,1997-08-01T18:00:00Z,27.8674,-96.5433,2.0,56.83848664,17.44051605,-99999.0,'11111222,11111222,99999999' 
TABS,ioos:station:TABS:H:1,1997-08-01T18:30:00Z,27.8674,-96.5433,2.0,57.99469163,14.05663189,-99999.0,'11111222,11111222,99999999' 
TABS,ioos:station:TABS:H:1,1997-08-01T19:00:00Z,27.8674,-96.5433,2.0,48.52756503,10.34335536,-99999.0,'11111222,11111222,99999999' 
TABS,ioos:station:TABS:H:1,1997-08-01T19:30:00Z,27.8674,-96.5433,2.0,38.36555355,9.119106316,-99999.0,'11133222,11111222,99999999' 
TABS,ioos:station:TABS:H:1,1997-08-01T20:00:00Z,27.8674,-96.5433,2.0,27.4503575,8.39520101,-99999.0,'11133222,11111222,99999999' 
TABS,ioos:station:TABS:H:1,1997-08-01T20:30:00Z,27.8674,-96.5433,2.0,19.15970629,7.251682563,-99999.0,'11133222,11111222,99999999' 
TABS,ioos:station:TABS:H:1,1997-08-01T21:00:00Z,27.8674,-96.5433,2.0,11.77167185,7.303601851,-99999.0,'11133222,11111222,99999999' 
TABS,ioos:station:TABS:H:1,1997-08-01T21:30:00Z,27.8674,-96.5433,2.0,21.36762892,7.355603306,-99999.0,'11133222,11111222,99999999' 
TABS,ioos:station:TABS:H:1,1997-08-01T22:00:00Z,27.8674,-96.5433,2.0,0.000210459,5.96,-99999.0,'11133222,11111222,99999999' 
TABS,ioos:station:TABS:H:1,1997-08-01T22:30:00Z,27.8674,-96.5433,2.0,346.4017206,8.889190064,-99999.0,'11133222,11111222,99999999' 
TABS,ioos:station:TABS:H:1,1997-08-01T23:00:00Z,27.8674,-96.5433,2.0,351.8701271,10.53589104,-99999.0,'11111222,11111222,99999999' 
TABS,ioos:station:TABS:H:1,1997-08-01T23:30:00Z,27.8674,-96.5433,2.0,350.9423435,13.27554895,-99999.0,'11111222,11111222,99999999' 
TABS,ioos:station:TABS:H:1,1997-08-02T00:00:00Z,27.8674,-96.5433,2.0,357.3185336,12.82404382,-99999.0,'11111222,11111222,99999999' 
TABS,ioos:station:TABS:H:1,1997-08-02T00:30:00Z,27.8674,-96.5433,2.0,0.000210459,13.71,-99999.0,'11111222,11111222,99999999' 
TABS,ioos:station:TABS:H:1,1997-08-02T01:00:00Z,27.8674,-96.5433,2.0,8.484954809,14.16503442,-99999.0,'11111222,11111222,99999999' 
TABS,ioos:station:TABS:H:1,1997-08-02T01:30:00Z,27.8674,-96.5433,2.0,16.38767166,15.8436391,-99999.0,'11111222,11111222,99999999' 
TABS,ioos:station:TABS:H:1,1997-08-02T02:00:00Z,27.8674,-96.5433,2.0,22.62571225,15.49230777,-99999.0,'11111222,11111222,99999999' 
TABS,ioos:station:TABS:H:1,1997-08-02T02:30:00Z,27.8674,-96.5433,2.0,26.06743681,14.92855318,-99999.0,'11111222,11111222,99999999' 
TABS,ioos:station:TABS:H:1,1997-08-02T03:00:00Z,27.8674,-96.5433,2.0,30.09265932,13.08342463,-99999.0,'11111222,11111222,99999999' 
TABS,ioos:station:TABS:H:1,1997-08-02T03:30:00Z,27.8674,-96.5433,2.0,27.70715417,13.46380333,-99999.0,'11111222,11111222,99999999' 
TABS,ioos:station:TABS:H:1,1997-08-02T04:00:00Z,27.8674,-96.5433,2.0,30.09265932,13.08342463,-99999.0,'11111222,11111222,99999999' 
TABS,ioos:station:TABS:H:1,1997-08-02T04:30:00Z,27.8674,-96.5433,2.0,28.60243505,11.19636102,-99999.0,'11111222,11111222,99999999' 
TABS,ioos:station:TABS:H:1,1997-08-02T05:00:00Z,27.8674,-96.5433,2.0,49.60458162,10.57000473,-99999.0,'11111222,11111222,99999999' 
TABS,ioos:station:TABS:H:1,1997-08-02T05:30:00Z,27.8674,-96.5433,2.0,48.03413778,8.015684625,-99999.0,'11133222,11111222,99999999' 
TABS,ioos:station:TABS:H:1,1997-08-02T06:00:00Z,27.8674,-96.5433,2.0,72.28327948,7.820927055,-99999.0,'11133222,11111222,99999999' 
TABS,ioos:station:TABS:H:1,1997-08-02T06:30:00Z,27.8674,-96.5433,2.0,75.25148898,5.852836919,-99999.0,'11133222,11111222,99999999' 
TABS,ioos:station:TABS:H:1,1997-08-02T07:00:00Z,27.8674,-96.5433,2.0,60.92731508,3.066349621,-99999.0,'11133222,11111222,99999999' 
TABS,ioos:station:TABS:H:1,1997-08-02T07:30:00Z,27.8674,-96.5433,2.0,33.61626938,2.14946505,-99999.0,'11133222,11111222,99999999' 
TABS,ioos:station:TABS:H:1,1997-08-02T08:00:00Z,27.8674,-96.5433,2.0,18.37095534,2.823915721,-99999.0,'11133222,11111222,99999999' 
TABS,ioos:station:TABS:H:1,1997-08-02T08:30:00Z,27.8674,-96.5433,2.0,68.17654522,4.815080477,-99999.0,'11133222,11111222,99999999' 
TABS,ioos:station:TABS:H:1,1997-08-02T09:00:00Z,27.8674,-96.5433,2.0,83.09749262,9.901767519,-99999.0,'11133222,11111222,99999999' 
TABS,ioos:station:TABS:H:1,1997-08-02T09:30:00Z,27.8674,-96.5433,2.0,91.06816049,16.09279653,-99999.0,'11111222,11111222,99999999' 
TABS,ioos:station:TABS:H:1,1997-08-02T10:00:00Z,27.8674,-96.5433,2.0,105.6990298,19.80895,-99999.0,'11111222,11111222,99999999' 
TABS,ioos:station:TABS:H:1,1997-08-02T10:30:00Z,27.8674,-96.5433,2.0,111.0325076,16.60637227,-99999.0,'11111222,11111222,99999999' 
TABS,ioos:station:TABS:H:1,1997-08-02T11:00:00Z,27.8674,-96.5433,2.0,116.5792311,17.9914035,-99999.0,'11111222,11111222,99999999' 
TABS,ioos:station:TABS:H:1,1997-08-02T11:30:00Z,27.8674,-96.5433,2.0,116.9419287,20.39338128,-99999.0,'11111222,11111222,99999999' 
TABS,ioos:station:TABS:H:1,1997-08-02T12:00:00Z,27.8674,-96.5433,2.0,111.8134119,17.65405619,-99999.0,'11111222,11111222,99999999' 
TABS,ioos:station:TABS:H:1,1997-08-02T12:30:00Z,27.8674,-96.5433,2.0,119.1683383,14.6703306,-99999.0,'11111222,11111222,99999999' 
TABS,ioos:station:TABS:H:1,1997-08-02T13:00:00Z,27.8674,-96.5433,2.0,134.9998948,9.687362902,-99999.0,'11133222,11111222,99999999' 
TABS,ioos:station:TABS:H:1,1997-08-02T13:30:00Z,27.8674,-96.5433,2.0,159.4306301,10.18960254,-99999.0,'11111222,11111222,99999999' 
TABS,ioos:station:TABS:H:1,1997-08-02T14:00:00Z,27.8674,-96.5433,2.0,173.0972822,9.901767519,-99999.0,'11133222,11111222,99999999' 
TABS,ioos:station:TABS:H:1,1997-08-02T14:30:00Z,27.8674,-96.5433,2.0,186.3282448,10.79578622,-99999.0,'11111222,11111222,99999999' 
TABS,ioos:station:TABS:H:1,1997-08-02T15:00:00Z,27.8674,-96.5433,2.0,189.2661458,12.97937595,-99999.0,'11111222,11111222,99999999' 
TABS,ioos:station:TABS:H:1,1997-08-02T15:30:00Z,27.8674,-96.5433,2.0,181.51787,11.32397457,-99999.0,'11111222,11111222,99999999' 
TABS,ioos:station:TABS:H:1,1997-08-02T16:00:00Z,27.8674,-96.5433,2.0,196.1741986,9.620810777,-99999.0,'11133222,11111222,99999999' 
TABS,ioos:station:TABS:H:1,1997-08-02T16:30:00Z,27.8674,-96.5433,2.0,189.7843944,8.767536712,-99999.0,'11133222,11111222,99999999' 
TABS,ioos:station:TABS:H:1,1997-08-02T17:00:00Z,27.8674,-96.5433,2.0,201.1426064,14.05620859,-99999.0,'11111222,11111222,99999999' 
TABS,ioos:station:TABS:H:1,1997-08-02T17:30:00Z,27.8674,-96.5433,2.0,208.6101823,18.66964649,-99999.0,'11111222,11111222,99999999' 
TABS,ioos:station:TABS:H:1,1997-08-02T18:00:00Z,27.8674,-96.5433,2.0,209.4463556,13.34383753,-99999.0,'11111222,11111222,99999999' 
TABS,ioos:station:TABS:H:1,1997-08-02T18:30:00Z,27.8674,-96.5433,2.0,220.8090882,17.32092665,-99999.0,'11111222,11111222,99999999' 
TABS,ioos:station:TABS:H:1,1997-08-02T19:00:00Z,27.8674,-96.5433,2.0,218.1036162,19.31648001,-99999.0,'11111222,11111222,99999999' 
TABS,ioos:station:TABS:H:1,1997-08-02T19:30:00Z,27.8674,-96.5433,2.0,218.8171501,17.59616435,-99999.0,'11111222,11111222,99999999' 
TABS,ioos:station:TABS:H:1,1997-08-02T20:00:00Z,27.8674,-96.5433,2.0,227.0120079,17.9220674,-99999.0,'11111222,11111222,99999999' 
TABS,ioos:station:TABS:H:1,1997-08-02T20:30:00Z,27.8674,-96.5433,2.0,235.7470591,16.94968141,-99999.0,'11111222,11111222,99999999' 
TABS,ioos:station:TABS:H:1,1997-08-02T21:00:00Z,27.8674,-96.5433,2.0,248.2129552,14.44152693,-99999.0,'11111222,11111222,99999999' 
TABS,ioos:station:TABS:H:1,1997-08-02T21:30:00Z,27.8674,-96.5433,2.0,256.685795,23.27556874,-99999.0,'11111222,11111222,99999999' 
TABS,ioos:station:TABS:H:1,1997-08-02T22:00:00Z,27.8674,-96.5433,2.0,265.4935116,26.60222735,-99999.0,'11111222,11111222,99999999' 
TABS,ioos:station:TABS:H:1,1997-08-02T22:30:00Z,27.8674,-96.5433,2.0,266.33117,23.28771565,-99999.0,'11111222,11111222,99999999' 
TABS,ioos:station:TABS:H:1,1997-08-02T23:00:00Z,27.8674,-96.5433,2.0,271.3414708,25.63702206,-99999.0,'11111222,11111222,99999999' 
TABS,ioos:station:TABS:H:1,1997-08-02T23:30:00Z,27.8674,-96.5433,2.0,271.4793259,23.24774398,-99999.0,'11111222,11111222,99999999' 
TABS,ioos:station:TABS:H:1,1997-08-03T00:00:00Z,27.8674,-96.5433,2.0,276.5786071,23.39401633,-99999.0,'11111222,11111222,99999999' 
TABS,ioos:station:TABS:H:1,1997-08-03T00:30:00Z,27.8674,-96.5433,2.0,277.3074072,23.43027955,-99999.0,'11111222,11111222,99999999' 
TABS,ioos:station:TABS:H:1,1997-08-03T01:00:00Z,27.8674,-96.5433,2.0,275.4975887,24.84426091,-99999.0,'11111222,11111222,99999999' 
TABS,ioos:station:TABS:H:1,1997-08-03T01:30:00Z,27.8674,-96.5433,2.0,275.9210278,23.07307738,-99999.0,'11111222,11111222,99999999' 
TABS,ioos:station:TABS:H:1,1997-08-03T02:00:00Z,27.8674,-96.5433,2.0,271.4421211,23.84754914,-99999.0,'11111222,11111222,99999999' 
TABS,ioos:station:TABS:H:1,1997-08-03T02:30:00Z,27.8674,-96.5433,2.0,274.706641,29.00780067,-99999.0,'11111222,11111222,99999999' 
TABS,ioos:station:TABS:H:1,1997-08-03T03:00:00Z,27.8674,-96.5433,2.0,276.1385417,27.86977754,-99999.0,'11111222,11111222,99999999' 
TABS,ioos:station:TABS:H:1,1997-08-03T03:30:00Z,27.8674,-96.5433,2.0,280.9480287,28.22363726,-99999.0,'11111222,11111222,99999999' 
TABS,ioos:station:TABS:H:1,1997-08-03T04:00:00Z,27.8674,-96.5433,2.0,282.914538,29.35243942,-99999.0,'11111222,11111222,99999999' 
TABS,ioos:station:TABS:H:1,1997-08-03T04:30:00Z,27.8674,-96.5433,2.0,289.1329471,30.90723055,-99999.0,'11111222,11111222,99999999' 
TABS,ioos:station:TABS:H:1,1997-08-03T05:00:00Z,27.8674,-96.5433,2.0,291.9108292,26.34278839,-99999.0,'11111222,11111222,99999999' 
TABS,ioos:station:TABS:H:1,1997-08-03T05:30:00Z,27.8674,-96.5433,2.0,296.827197,28.38494319,-99999.0,'11111222,11111222,99999999' 
TABS,ioos:station:TABS:H:1,1997-08-03T06:00:00Z,27.8674,-96.5433,2.0,301.4843211,27.95542166,-99999.0,'11111222,11111222,99999999' 
TABS,ioos:station:TABS:H:1,1997-08-03T06:30:00Z,27.8674,-96.5433,2.0,308.0466231,26.10750275,-99999.0,'11111222,11111222,99999999' 
TABS,ioos:station:TABS:H:1,1997-08-03T07:00:00Z,27.8674,-96.5433,2.0,314.0225561,24.44824125,-99999.0,'11111222,11111222,99999999' 
TABS,ioos:station:TABS:H:1,1997-08-03T07:30:00Z,27.8674,-96.5433,2.0,317.1993585,21.92938896,-99999.0,'11111222,11111222,99999999' 
TABS,ioos:station:TABS:H:1,1997-08-03T08:00:00Z,27.8674,-96.5433,2.0,324.0334828,18.7803328,-99999.0,'11111222,11111222,99999999' 
TABS,ioos:station:TABS:H:1,1997-08-03T08:30:00Z,27.8674,-96.5433,2.0,332.5197897,16.79501414,-99999.0,'11111222,11111222,99999999' 
TABS,ioos:station:TABS:H:1,1997-08-03T09:00:00Z,27.8674,-96.5433,2.0,336.6488862,14.27962535,-99999.0,'11111222,11111222,99999999' 
TABS,ioos:station:TABS:H:1,1997-08-03T09:30:00Z,27.8674,-96.5433,2.0,340.2590201,12.34557816,-99999.0,'11111222,11111222,99999999' 
TABS,ioos:station:TABS:H:1,1997-08-03T10:00:00Z,27.8674,-96.5433,2.0,351.8701271,10.53589104,-99999.0,'11111222,11111222,99999999' 
TABS,ioos:station:TABS:H:1,1997-08-03T10:30:00Z,27.8674,-96.5433,2.0,0.000210459,9.54,-99999.0,'11133222,11111222,99999999' 
TABS,ioos:station:TABS:H:1,1997-08-03T11:00:00Z,27.8674,-96.5433,2.0,10.28197314,6.667060822,-99999.0,'11133222,11111222,99999999' 
TABS,ioos:station:TABS:H:1,1997-08-03T11:30:00Z,27.8674,-96.5433,2.0,20.56936994,5.094801272,-99999.0,'11133222,11111222,99999999' 
TABS,ioos:station:TABS:H:1,1997-08-03T12:00:00Z,27.8674,-96.5433,2.0,39.25145525,4.235658154,-99999.0,'11133222,11111222,99999999' 
TABS,ioos:station:TABS:H:1,1997-08-03T12:30:00Z,27.8674,-96.5433,2.0,81.18711897,3.916235437,-99999.0,'11133222,11111222,99999999' 
TABS,ioos:station:TABS:H:1,1997-08-03T13:00:00Z,27.8674,-96.5433,2.0,123.7392965,3.222809333,-99999.0,'11133222,11111222,99999999' 
TABS,ioos:station:TABS:H:1,1997-08-03T13:30:00Z,27.8674,-96.5433,2.0,150.670627,5.471316112,-99999.0,'11133222,11111222,99999999' 
TABS,ioos:station:TABS:H:1,1997-08-03T14:00:00Z,27.8674,-96.5433,2.0,165.9447254,7.370658044,-99999.0,'11133222,11111222,99999999' 
TABS,ioos:station:TABS:H:1,1997-08-03T14:30:00Z,27.8674,-96.5433,2.0,175.5728282,7.773191108,-99999.0,'11133222,11111222,99999999' 
TABS,ioos:station:TABS:H:1,1997-08-03T15:00:00Z,27.8674,-96.5433,2.0,179.9997895,8.34,-99999.0,'11133222,11111222,99999999' 
TABS,ioos:station:TABS:H:1,1997-08-03T15:30:00Z,27.8674,-96.5433,2.0,175.7297659,11.95317949,-99999.0,'11111222,11111222,99999999' 
TABS,ioos:station:TABS:H:1,1997-08-03T16:00:00Z,27.8674,-96.5433,2.0,175.4335208,14.9474446,-99999.0,'11111222,11111222,99999999' 
TABS,ioos:station:TABS:H:1,1997-08-03T16:30:00Z,27.8674,-96.5433,2.0,179.9997895,18.18,-99999.0,'11111222,11111222,99999999' 
TABS,ioos:station:TABS:H:1,1997-08-03T17:00:00Z,27.8674,-96.5433,2.0,207.3286753,20.12640057,-99999.0,'11111222,11111222,99999999' 
TABS,ioos:station:TABS:H:1,1997-08-03T17:30:00Z,27.8674,-96.5433,2.0,209.1265235,20.8117587,-99999.0,'11111222,11111222,99999999' 
TABS,ioos:station:TABS:H:1,1997-08-03T18:00:00Z,27.8674,-96.5433,2.0,204.1996625,22.54087842,-99999.0,'11111222,11111222,99999999' 
TABS,ioos:station:TABS:H:1,1997-08-03T18:30:00Z,27.8674,-96.5433,2.0,226.7123329,21.29342622,-99999.0,'11111222,11111222,99999999' 
TABS,ioos:station:TABS:H:1,1997-08-03T19:00:00Z,27.8674,-96.5433,2.0,229.9133071,22.20698314,-99999.0,'11111222,11111222,99999999' 
TABS,ioos:station:TABS:H:1,1997-08-03T19:30:00Z,27.8674,-96.5433,2.0,231.2440789,25.22365953,-99999.0,'11111222,11111222,99999999' 
TABS,ioos:station:TABS:H:1,1997-08-03T20:00:00Z,27.8674,-96.5433,2.0,231.0273926,26.05954144,-99999.0,'11111222,11111222,99999999' 
TABS,ioos:station:TABS:H:1,1997-08-03T20:30:00Z,27.8674,-96.5433,2.0,228.6638601,23.01387408,-99999.0,'11111222,11111222,99999999' 
TABS,ioos:station:TABS:H:1,1997-08-03T21:00:00Z,27.8674,-96.5433,2.0,225.8870008,27.39660198,-99999.0,'11111222,11111222,99999999' 
TABS,ioos:station:TABS:H:1,1997-08-03T21:30:00Z,27.8674,-96.5433,2.0,225.3921141,30.97200349,-99999.0,'11111222,11111222,99999999' 
TABS,ioos:station:TABS:H:1,1997-08-03T22:00:00Z,27.8674,-96.5433,2.0,228.5977703,30.19641369,-99999.0,'11111222,11111222,99999999' 
TABS,ioos:station:TABS:H:1,1997-08-03T22:30:00Z,27.8674,-96.5433,2.0,231.2376419,27.13679605,-99999.0,'11111222,11111222,99999999' 
TABS,ioos:station:TABS:H:1,1997-08-03T23:00:00Z,27.8674,-96.5433,2.0,233.6499852,19.60480808,-99999.0,'11111222,11111222,99999999' 
TABS,ioos:station:TABS:H:1,1997-08-03T23:30:00Z,27.8674,-96.5433,2.0,234.8303534,22.23979541,-99999.0,'11111222,11111222,99999999' 
TABS,ioos:station:TABS:H:1,1997-08-04T00:00:00Z,27.8674,-96.5433,2.0,238.7539648,31.01932462,-99999.0,'11111222,11111222,99999999' 
TABS,ioos:station:TABS:H:1,1997-08-04T00:30:00Z,27.8674,-96.5433,2.0,239.8066941,33.78313337,-99999.0,'11111222,11111222,99999999' 
TABS,ioos:station:TABS:H:1,1997-08-04T01:00:00Z,27.8674,-96.5433,2.0,241.232281,34.68019752,-99999.0,'11111222,11111222,99999999' 
TABS,ioos:station:TABS:H:1,1997-08-04T01:30:00Z,27.8674,-96.5433,2.0,245.5556815,36.007477,-99999.0,'11111222,11111222,99999999' 
TABS,ioos:station:TABS:H:1,1997-08-04T02:00:00Z,27.8674,-96.5433,2.0,243.2265562,35.71918532,-99999.0,'11111222,11111222,99999999' 
TABS,ioos:station:TABS:H:1,1997-08-04T02:30:00Z,27.8674,-96.5433,2.0,249.8467381,34.59821961,-99999.0,'11111222,11111222,99999999' 
TABS,ioos:station:TABS:H:1,1997-08-04T03:00:00Z,27.8674,-96.5433,2.0,252.8678566,33.37066077,-99999.0,'11111222,11111222,99999999' 
TABS,ioos:station:TABS:H:1,1997-08-04T03:30:00Z,27.8674,-96.5433,2.0,260.3759146,33.85646172,-99999.0,'11111222,11111222,99999999' 
TABS,ioos:station:TABS:H:1,1997-08-04T04:00:00Z,27.8674,-96.5433,2.0,267.8625393,31.91219516,-99999.0,'11111222,11111222,99999999' 
TABS,ioos:station:TABS:H:1,1997-08-04T04:30:00Z,27.8674,-96.5433,2.0,274.5213682,30.19394641,-99999.0,'11111222,11111222,99999999' 
TABS,ioos:station:TABS:H:1,1997-08-04T05:00:00Z,27.8674,-96.5433,2.0,285.6257566,28.77336616,-99999.0,'11111222,11111222,99999999' 
TABS,ioos:station:TABS:H:1,1997-08-04T05:30:00Z,27.8674,-96.5433,2.0,293.0441045,28.17846341,-99999.0,'11111222,11111222,99999999' 
TABS,ioos:station:TABS:H:1,1997-08-04T06:00:00Z,27.8674,-96.5433,2.0,295.9653178,25.19292361,-99999.0,'11111222,11111222,99999999' 
TABS,ioos:station:TABS:H:1,1997-08-04T06:30:00Z,27.8674,-96.5433,2.0,301.7812617,24.89212124,-99999.0,'11111222,11111222,99999999' 
TABS,ioos:station:TABS:H:1,1997-08-04T07:00:00Z,27.8674,-96.5433,2.0,307.0212087,22.77007905,-99999.0,'11111222,11111222,99999999' 
TABS,ioos:station:TABS:H:1,1997-08-04T07:30:00Z,27.8674,-96.5433,2.0,314.4176682,20.86072865,-99999.0,'11111222,11111222,99999999' 
TABS,ioos:station:TABS:H:1,1997-08-04T08:00:00Z,27.8674,-96.5433,2.0,319.2507468,25.56859402,-99999.0,'11111222,11111222,99999999' 
TABS,ioos:station:TABS:H:1,1997-08-04T08:30:00Z,27.8674,-96.5433,2.0,321.5570538,23.96503495,-99999.0,'11111222,11111222,99999999' 
TABS,ioos:station:TABS:H:1,1997-08-04T09:00:00Z,27.8674,-96.5433,2.0,318.3060717,21.9497631,-99999.0,'11111222,11111222,99999999' 
TABS,ioos:station:TABS:H:1,1997-08-04T09:30:00Z,27.8674,-96.5433,2.0,327.2633257,19.84159772,-99999.0,'11111222,11111222,99999999' 
TABS,ioos:station:TABS:H:1,1997-08-04T10:00:00Z,27.8674,-96.5433,2.0,329.4107493,15.2293992,-99999.0,'11111222,11111222,99999999' 
TABS,ioos:station:TABS:H:1,1997-08-04T10:30:00Z,27.8674,-96.5433,2.0,327.4462471,12.73009819,-99999.0,'11111222,11111222,99999999' 
TABS,ioos:station:TABS:H:1,1997-08-04T11:00:00Z,27.8674,-96.5433,2.0,327.0739428,12.0685749,-99999.0,'11111222,11111222,99999999' 
TABS,ioos:station:TABS:H:1,1997-08-04T11:30:00Z,27.8674,-96.5433,2.0,342.5430643,10.93358587,-99999.0,'11111222,11111222,99999999' 
TABS,ioos:station:TABS:H:1,1997-08-04T12:00:00Z,27.8674,-96.5433,2.0,358.3526596,10.43431359,-99999.0,'11111222,11111222,99999999' 
TABS,ioos:station:TABS:H:1,1997-08-04T12:30:00Z,27.8674,-96.5433,2.0,14.55439037,8.316886437,-99999.0,'11133222,11111222,99999999' 
TABS,ioos:station:TABS:H:1,1997-08-04T13:00:00Z,27.8674,-96.5433,2.0,34.70298078,4.707366567,-99999.0,'11133222,11111222,99999999' 
TABS,ioos:station:TABS:H:1,1997-08-04T13:30:00Z,27.8674,-96.5433,2.0,36.81877356,4.472001789,-99999.0,'11133222,11111222,99999999' 
TABS,ioos:station:TABS:H:1,1997-08-04T14:00:00Z,27.8674,-96.5433,2.0,51.38720732,3.813764544,-99999.0,'11133222,11111222,99999999' 
TABS,ioos:station:TABS:H:1,1997-08-04T14:30:00Z,27.8674,-96.5433,2.0,72.65285558,4.997299271,-99999.0,'11133222,11111222,99999999' 
TABS,ioos:station:TABS:H:1,1997-08-04T15:00:00Z,27.8674,-96.5433,2.0,101.8733242,5.783744462,-99999.0,'11133222,11111222,99999999' 
TABS,ioos:station:TABS:H:1,1997-08-04T15:30:00Z,27.8674,-96.5433,2.0,105.6707322,7.73760945,-99999.0,'11133222,11111222,99999999' 
TABS,ioos:station:TABS:H:1,1997-08-04T16:00:00Z,27.8674,-96.5433,2.0,114.4307353,7.205137056,-99999.0,'11133222,11111222,99999999' 
TABS,ioos:station:TABS:H:1,1997-08-04T16:30:00Z,27.8674,-96.5433,2.0,118.6226302,7.473285757,-99999.0,'11133222,11111222,99999999' 
TABS,ioos:station:TABS:H:1,1997-08-04T17:00:00Z,27.8674,-96.5433,2.0,115.4561795,6.933108971,-99999.0,'11133222,11111222,99999999' 
TABS,ioos:station:TABS:H:1,1997-08-04T17:30:00Z,27.8674,-96.5433,2.0,121.331273,8.019438883,-99999.0,'11133222,11111222,99999999' 
TABS,ioos:station:TABS:H:1,1997-08-04T18:00:00Z,27.8674,-96.5433,2.0,141.9573469,8.697821566,-99999.0,'11133222,11111222,99999999' 